Weather in Ust-Talovka

Kazakhstan     50°32′42″N   81°50′58″E
temp.,
°C
wind,
m/s
gust,
m/s
humid.,
%
clouds,
%
prec.,
mm/h
press.,
hPa
HPBL,
m
17 may, tue
tue1700:00+16se2253100 0.0 101411
03:00+15ese2257100 0.0 101311
06:00+15ese236045 0.0 101351
09:00+21sse454224 0.0 1012542
12:00+26s45293 0.0 10112406
15:00+27sw34243 0.0 10103126
18:00+27sse222728 0.0 10091403
21:00+19se49520 0.0 1010141
18 may, wed
wed1800:00+17ese2249100 0.0 101012
03:00+17ese225051 0.0 101111
06:00+16ese22555 0.0 101132
09:00+24se453931 0.0 1011435
12:00+28sse43295 0.0 10101569
15:00+29se33245 0.0 10092887
18:00+28sse3430100 0.0 1008486
21:00+21ese3343100 0.0 100824
19 may, thu
thu1900:00+19ese3345100 0.0 100833
03:00+17se3852100 0.1 1007119
06:00+18sse3856100 0.1 1008196
09:00+22w6850100 0.0 1011872
12:00+24wsw67415 0.0 10121702
15:00+25w583353 0.0 10122452
18:00+25w3731100 0.0 10122713
21:00+19nnw611355 0.0 1015657
20 may, fri
fri2000:00+17n2232100 0.0 101728
03:00+16n113764 0.0 101819
06:00+14ene114820 0.0 101914
09:00+20e12295 0.0 10191198
12:00+23nnw22255 0.0 10182044
15:00+24n12235 0.0 10162267
18:00+23ne22255 0.0 10152030
21:00+16ene33442 0.0 101540
21 may, sat
sat2100:00+15ne33410 0.0 101319
03:00+13ne22460 0.0 101015
06:00+13e21543 0.0 100925
09:00+20se233898 0.0 1007391
12:00+26se563297 0.0 1005954
15:00+29se583087 0.0 10021528
18:00+27sse594396 0.0 1000747
21:00+24sse71541100 0.0 1001740